Satellite: NOAA-17
Catalog number: 27453
Epoch time:      11341.83250333
Element set:    0514
Inclination:      098.3602 deg
RA of node:       013.3903 deg
Eccentricity:    0.0011806
Arg of perigee:   006.0964 deg
Mean anomaly:     354.0333 deg
Mean motion:   14.24363766 rev/day
Decay rate:       3.80e-06 rev/day^2
Epoch rev:           49137
Checksum:              272

Satellite: NOAA-18
Catalog number: 28654
Epoch time:      11341.83923247
Element set:    0990
Inclination:      099.0198 deg
RA of node:       293.6097 deg
Eccentricity:    0.0014157
Arg of perigee:   339.2188 deg
Mean anomaly:     020.8392 deg
Mean motion:   14.11570540 rev/day
Decay rate:       4.52e-06 rev/day^2
Epoch rev:           33742
Checksum:              316

Satellite: NOAA-19
Catalog number: 33591
Epoch time:      11341.80407689
Element set:    0179
Inclination:      098.8445 deg
RA of node:       279.1784 deg
Eccentricity:    0.0013736
Arg of perigee:   202.5755 deg
Mean anomaly:     157.4796 deg
Mean motion:   14.11260577 rev/day
Decay rate:       5.01e-06 rev/day^2
Epoch rev:           14587
Checksum:              336

/EX
SB KEPS @ AMSAT  $ORB11342.M
Orbital Elements  11342.MISC

HR AMSAT ORBITAL ELEMENTS FOR MANNED AND MISCELLANEOUS SATELLITES
FROM WA5QGD FORT WORTH,TX December 8, 2011
Send Subscribe/unsubscribe to KEPS at http://www.amsat.org/mailman/listinfo/kep
BID: ORB11342.M
TO ALL RADIO AMATEURS BT

Satellite: HUBBLE
Catalog number: 20580
Epoch time:      11341.26288436
Element set:     901
Inclination:      028.4713 deg
RA of node:       325.5369 deg
Eccentricity:    0.0003586
Arg of perigee:   162.9826 deg
Mean anomaly:     197.0928 deg
Mean motion:   15.01951674 rev/day
Decay rate:      3.571e-05 rev/day^2
Epoch rev:           98569
Checksum:              324

Satellite: ISS
Catalog number: 25544
Epoch time:      11343.07331196
Element set:     586
Inclination:      051.6445 deg
RA of node:       000.8637 deg
Eccentricity:    0.0028436
Arg of perigee:   142.0785 deg
Mean anomaly:     259.7596 deg
Mean motion:   15.58772298 rev/day
Decay rate:     2.2769e-04 rev/day^2
Epoch rev:           74821
Checksum:              332

Satellite: CO-58
Catalog number: 28895
Epoch time:      11342.66662596
Element set:      43
Inclination:      097.9418 deg
RA of node:       212.0668 deg
Eccentricity:    0.0018803
Arg of perigee:   034.9294 deg
Mean anomaly:     325.3167 deg
Mean motion:   14.60372818 rev/day
Decay rate:      1.387e-05 rev/day^2
Epoch rev:           32570
Checksum:              335

Satellite: FALCON
Catalog number: 30776
Epoch time:      11341.50955803
Element set:     232
Inclination:      035.4346 deg
RA of node:       012.3789 deg
Eccentricity:    0.0002074
Arg of perigee:   163.7372 deg
Mean anomaly:     196.3412 deg
Mean motion:   15.06028956 rev/day
Decay rate:      8.319e-05 rev/day^2
Epoch rev:           26117
Checksum:              286

Satellite: MAST
Catalog number: 31126
Epoch time:      11341.95724080
Element set:    0329
Inclination:      097.8834 deg
RA of node:       359.2578 deg
Eccentricity:    0.0094364
Arg of perigee:   350.3632 deg
Mean anomaly:     009.5753 deg
Mean motion:   14.53946764 rev/day
Decay rate:      1.270e-05 rev/day^2
Epoch rev:           24633
Checksum:              312

Satellite: CAPE1
Catalog number: 31130
Epoch time:      11342.58522708
Element set:     339
Inclination:      097.8896 deg
RA of node:       356.3872 deg
Eccentricity:    0.0102010
Arg of perigee:   000.1719 deg
Mean anomaly:     359.9427 deg
Mean motion:   14.52653312 rev/day
Decay rate:      1.478e-05 rev/day^2
Epoch rev:           24595
Checksum:              299

Satellite: COMPASS
Catalog number: 32787
Epoch time:      11342.73068949
Element set:     164
Inclination:      097.8290 deg
RA of node:       043.1494 deg
Eccentricity:    0.0015018
Arg of perigee:   330.5370 deg
Mean anomaly:     029.4996 deg
Mean motion:   14.83202504 rev/day
Decay rate:      4.146e-05 rev/day^2
Epoch rev:           19542
Checksum:              303

Satellite: AAUSAT2
Catalog number: 32788
Epoch time:      11342.73761923
Element set:     156
Inclination:      097.8299 deg
RA of node:       043.4429 deg
Eccentricity:    0.0014369
Arg of perigee:   331.8827 deg
Mean anomaly:     028.1606 deg
Mean motion:   14.83453903 rev/day
Decay rate:      4.532e-05 rev/day^2
Epoch rev:           19544
Checksum:              324

Satellite: DO-64
Catalog number: 32789
Epoch time:      11341.79737924
Element set:    0170
Inclination:      097.8399 deg
RA of node:       043.9079 deg
Eccentricity:    0.0014634
Arg of perigee:   330.7029 deg
Mean anomaly:     029.3348 deg
Mean motion:   14.84392025 rev/day
Decay rate:      7.507e-05 rev/day^2
Epoch rev:           19532
Checksum:              339

Satellite: CO-66
Catalog number: 32791
Epoch time:      11342.72129819
Element set:     159
Inclination:      097.8306 deg
RA of node:       043.0120 deg
Eccentricity:    0.0015553
Arg of perigee:   329.9096 deg
Mean anomaly:     030.1228 deg
Mean motion:   14.82759598 rev/day
Decay rate:      3.157e-05 rev/day^2
Epoch rev:           19536
Checksum:              322

